Theta_e
279 277 272 274 278 278 277 276 274 275 280 277 275 275 277 278 281 280 278 278 280 280 283 286 286 287 286 285 286 286 287 287 287 287 286 284 284 285 285 287 288 288 287 287
277 273 275 280 280 279 278 275 274 277 278 277 274 274 276 276 276 277 277 277 278 280 280 281 283 284 284 284 284 285 285 285 286 285 285 285 284 285 285 287 287 288 287 287
274 275 279 279 277 278 277 275 275 275 277 275 274 274 273 276 276 277 278 279 279 279 279 280 281 281 281 282 283 284 285 285 285 287 287 286 286 285 285 286 286 287 288 288
274 277 278 277 277 277 276 279 278 278 276 267 276 266 275 273 274 275 277 277 278 279 280 279 280 280 280 281 282 283 284 284 286 286 285 283 282 281 283 284 285 285 286 285
273 274 275 276 277 279 278 280 279 279 275 271 272 264 271 273 273 275 277 277 278 279 279 279 279 280 281 282 281 282 283 284 284 284 283 282 282 282 283 283 283 283 284 285
274 275 275 276 278 280 280 278 278 276 274 262 267 267 269 273 276 275 279 279 279 279 280 280 280 280 280 281 282 282 283 283 284 284 284 283 282 282 282 282 282 282 283 283
274 273 274 277 276 277 278 275 263 264 263 265 270 266 273 275 277 278 279 279 279 280 280 280 279 278 279 279 280 282 282 282 283 283 283 283 282 282 281 282 282 281 281 282
271 271 274 276 274 274 275 273 266 260 263 265 269 265 274 276 278 280 280 280 280 279 280 280 280 280 279 279 280 281 282 282 283 282 282 283 282 282 282 282 281 281 281 282
270 272 273 276 275 274 272 271 272 260 251 260 267 271 277 276 279 279 280 279 279 280 280 280 281 280 280 279 280 280 281 282 282 282 282 282 282 282 282 282 281 281 281 283
275 270 274 274 274 274 273 275 267 263 262 259 266 267 273 275 276 279 279 279 279 279 280 280 281 281 281 280 280 280 280 281 282 282 282 283 282 282 282 281 281 281 281 282
275 273 271 273 271 270 270 270 269 268 266 262 261 269 275 278 277 279 281 282 281 280 280 281 281 282 282 281 280 280 280 280 280 281 281 281 282 282 282 281 282 282 282 282
277 272 265 270 270 271 272 271 271 267 264 264 265 267 278 278 278 278 280 282 281 281 281 281 281 281 280 280 280 280 280 280 281 282 281 281 282 282 281 281 282 282 282 282
277 269 265 271 271 271 269 272 273 266 264 262 264 272 276 276 277 278 277 278 280 282 280 280 279 280 281 281 281 281 281 281 282 281 281 281 281 281 281 281 282 282 281 281
281 270 273 275 275 271 268 269 271 269 262 266 270 276 276 276 275 277 278 278 278 280 282 281 281 281 281 282 281 281 281 281 281 281 281 281 281 281 281 281 281 281 281 281
274 269 270 269 271 270 270 271 271 271 274 271 277 274 278 280 278 279 279 278 278 279 279 281 281 281 282 281 281 281 282 281 281 280 280 281 282 281 281 281 281 281 281 281
274 266 267 268 267 270 270 273 272 273 274 273 275 273 280 277 275 277 279 278 278 279 280 281 282 282 282 282 282 282 282 281 281 280 280 281 281 281 281 281 281 280 280 280
270 268 269 272 265 264 268 271 273 275 273 276 272 278 279 278 277 278 279 278 279 280 280 280 281 281 282 282 282 281 281 280 280 280 280 281 280 280 280 280 280 279 278 278
268 270 271 268 262 263 276 273 276 276 278 277 279 282 281 281 281 279 279 280 280 280 280 281 281 281 282 282 280 281 280 279 280 280 280 280 280 279 280 279 279 278 277 274
273 271 268 271 263 272 277 271 272 272 276 279 277 279 281 278 274 276 278 280 281 280 281 281 282 283 281 280 280 280 279 279 279 278 278 278 279 278 278 275 275 276 274 273
270 268 271 256 263 268 280 278 276 277 273 281 280 280 281 276 273 279 283 280 280 278 278 279 280 280 279 279 280 279 278 277 276 277 277 275 274 275 273 272 271 272 272 271
262 260 266 270 267 271 276 274 279 272 277 283 282 281 278 276 280 280 278 279 281 279 277 278 277 279 279 278 279 277 275 276 277 274 272 271 271 270 271 270 270 269 268 268
267 265 264 266 268 267 277 275 278 284 286 281 279 280 279 280 281 279 278 278 278 275 275 277 277 276 275 277 279 276 274 275 273 271 270 268 268 270 270 268 266 266 266 263
273 275 275 272 274 278 276 281 282 280 281 279 279 279 280 279 279 278 278 278 277 277 277 276 277 275 274 276 278 276 274 273 270 270 269 267 268 269 269 267 265 263 263 262
275 280 275 277 280 280 281 279 278 279 279 280 280 281 279 279 279 278 277 278 278 278 277 276 276 275 273 272 274 274 272 272 272 270 268 268 267 266 266 268 268 264 262 261
283 281 277 278 281 283 284 285 283 280 279 280 280 280 279 279 278 279 278 278 278 278 278 278 278 277 275 273 273 272 272 272 271 269 268 269 268 267 266 265 264 266 265 266
284 282 279 278 284 283 285 287 282 281 281 282 280 280 279 280 280 279 279 279 279 278 277 277 276 275 273 272 271 269 271 271 270 268 268 267 266 265 264 263 261 266 268 268
Wind_Speed
8 11 7 8 6 5 9 7 5 2 3 4 4 2 7 6 5 7 7 6 5 6 4 5 5 4 5 4 3 0 2 3 2 2 1 1 3 2 3 3 5 5 5 5
8 7 5 2 7 10 8 7 3 1 3 3 3 7 8 7 6 7 7 7 7 4 6 6 6 6 6 5 5 3 1 1 2 2 1 1 1 0 1 2 4 5 5 5
7 0 2 4 6 6 5 5 2 3 2 3 2 6 6 6 6 7 9 9 7 9 8 7 7 8 7 7 6 5 4 2 1 1 1 1 1 2 3 3 3 4 5 5
6 4 2 3 4 2 4 3 3 4 4 1 4 6 6 6 9 9 11 10 11 10 7 7 8 8 8 8 7 6 6 5 3 2 2 2 2 1 1 2 2 4 4 4
0 3 4 4 1 1 3 2 3 2 3 4 2 4 8 3 8 15 16 13 13 12 10 10 10 10 9 7 7 7 6 6 5 4 3 2 2 2 2 2 3 3 3 3
3 1 2 1 1 1 2 3 5 4 3 4 5 5 8 8 11 5 15 16 15 13 12 11 9 7 8 7 7 7 7 7 6 6 6 6 6 5 3 3 3 3 2 3
1 0 0 1 3 2 3 4 4 7 6 6 2 2 15 7 8 9 13 16 15 13 13 12 10 9 8 9 8 7 7 8 7 8 7 7 7 6 6 6 4 4 3 2
5 6 5 2 2 5 2 4 6 6 3 5 4 9 9 6 7 8 8 10 10 14 13 13 14 11 10 9 8 8 8 8 7 7 8 7 7 5 5 6 4 4 4 4
5 2 1 1 1 2 4 3 3 9 1 4 4 9 11 6 7 7 10 8 13 15 15 16 13 12 10 9 10 10 9 9 8 9 7 7 7 7 7 8 6 5 5 5
5 3 0 0 1 2 2 5 4 4 1 6 6 7 10 6 11 9 10 13 13 11 13 14 14 15 12 11 9 9 9 11 10 8 7 7 7 7 7 6 8 7 7 6
5 5 1 2 8 9 3 3 3 4 5 7 3 10 10 11 11 16 17 14 13 14 15 16 15 14 13 10 9 10 10 10 9 8 7 7 7 8 6 6 7 7 6 6
7 6 5 7 0 1 2 6 6 7 7 4 3 13 5 9 7 9 12 13 10 11 13 13 13 11 10 13 11 12 10 9 11 9 7 9 7 7 7 7 8 6 7 5
10 3 2 8 2 3 6 7 4 3 4 9 8 11 2 4 8 9 11 10 11 13 10 9 9 12 14 13 13 12 11 12 11 8 7 7 8 7 8 8 7 6 6 7
9 4 10 13 11 7 8 9 14 8 5 5 17 22 10 9 12 10 12 11 10 13 15 13 12 14 14 14 14 13 12 10 9 7 7 8 8 9 8 7 6 6 5 6
6 10 7 6 3 5 6 8 18 20 23 15 21 25 25 24 16 19 13 8 9 13 12 15 16 15 15 13 12 11 12 8 8 8 8 9 9 7 6 6 6 5 5 6
3 5 4 6 1 5 10 13 15 25 15 24 23 34 16 6 5 8 15 12 14 16 16 16 15 14 14 15 14 13 12 10 8 8 9 7 6 6 6 6 6 5 6 5
10 7 5 16 2 6 16 23 26 21 15 21 22 42 6 16 19 19 17 14 16 18 16 15 17 16 15 15 14 14 12 7 8 8 7 7 6 6 6 6 5 6 5 3
9 7 3 4 3 12 10 10 16 30 30 26 30 32 17 20 18 13 13 17 20 17 14 14 13 12 13 9 9 8 7 7 8 8 7 6 6 6 5 5 6 4 2 3
1 6 4 10 8 16 24 8 12 12 25 29 31 36 33 9 2 10 13 18 21 16 15 14 14 14 9 11 9 8 7 6 6 7 7 5 5 5 5 3 3 3 3 2
2 3 7 5 8 25 39 11 10 9 29 24 31 34 27 9 9 19 19 17 18 12 9 11 11 8 9 9 10 9 7 7 7 7 6 4 4 4 3 3 3 2 2 2
3 2 17 18 9 21 8 11 13 10 10 13 20 26 10 13 19 5 2 11 15 11 12 8 9 13 11 10 11 9 8 9 8 5 4 3 3 4 3 4 2 2 2 2
15 12 8 4 10 33 9 8 25 18 17 6 8 11 15 21 16 11 7 7 9 9 10 10 10 9 7 10 11 8 9 6 6 5 5 4 4 3 3 4 2 2 3 0
22 19 16 17 12 5 8 12 13 5 6 5 5 7 15 14 14 12 12 9 9 11 11 9 10 9 7 9 10 9 6 7 7 7 5 4 4 3 4 4 3 2 2 0
10 15 14 23 27 27 21 11 7 8 11 5 7 6 9 13 14 13 7 8 9 10 11 9 10 9 9 6 6 5 7 8 8 7 6 5 5 4 2 2 2 2 1 1
20 14 21 22 28 21 33 19 18 11 9 10 8 8 12 11 7 12 10 9 9 11 10 12 12 10 10 8 7 6 8 9 8 7 6 5 4 4 4 3 3 1 2 3
20 25 20 20 20 19 36 20 15 20 23 20 16 13 10 15 16 12 11 11 12 12 9 9 8 9 8 8 8 6 7 8 9 8 6 5 5 3 3 3 3 5 5 8
Wind_Direction
11 61 32 329 359 93 110 95 101 314 309 46 12 323 242 246 233 262 259 248 226 232 223 193 188 206 205 186 182 182 68 38 48 41 23 21 22 8 24 28 36 42 34 39
38 51 318 14 44 68 74 99 66 46 28 66 323 278 251 242 243 223 233 239 229 219 207 211 202 210 208 197 202 195 150 65 35 61 48 89 197 41 37 9 32 35 32 27
100 189 350 82 40 58 30 97 151 137 48 81 18 284 238 238 225 223 226 225 220 211 211 213 209 207 208 210 211 213 205 183 110 93 92 55 45 24 18 359 0 5 14 21
78 344 76 70 73 1 65 10 74 103 56 201 76 277 263 226 246 228 232 218 223 214 213 209 212 211 209 216 208 217 207 205 217 178 119 107 135 144 250 260 304 325 345 352
23 28 30 47 19 330 139 80 52 77 85 65 1 72 266 95 252 238 233 228 223 217 207 213 214 212 214 207 209 212 215 216 223 205 183 169 209 230 251 285 298 301 304 331
104 90 79 68 357 347 139 85 55 55 65 24 228 130 270 194 214 229 221 221 218 214 215 217 215 206 213 209 207 210 212 226 222 215 216 210 220 237 253 266 274 281 278 296
334 251 311 135 103 11 64 55 349 358 8 221 166 51 246 242 226 214 208 216 214 209 209 212 209 208 212 209 208 209 210 228 219 218 222 222 230 234 243 247 250 272 283 268
156 305 175 163 157 179 155 146 155 212 229 263 354 240 251 217 221 213 218 213 203 207 208 210 212 210 211 213 210 207 210 228 223 221 229 224 228 223 229 234 237 244 240 245
128 258 5 27 78 126 199 182 140 100 65 38 228 279 291 228 256 218 220 211 213 209 205 208 208 207 209 209 212 206 210 226 221 221 222 228 228 226 232 237 235 241 243 245
196 77 262 144 49 20 181 152 72 360 259 288 281 281 244 250 228 221 223 219 217 209 208 207 204 204 206 206 209 204 207 217 220 218 214 225 225 227 231 231 240 240 247 239
135 107 279 40 203 178 153 207 67 125 148 186 258 257 217 221 203 207 221 222 211 207 208 207 208 206 203 202 201 208 209 214 224 218 217 221 229 232 229 231 238 234 249 235
188 141 174 199 91 45 246 217 165 136 233 230 177 264 249 230 224 206 224 223 216 210 207 208 205 197 195 205 206 209 214 210 221 221 209 223 226 229 231 235 243 238 247 248
183 240 27 334 10 5 217 198 166 94 64 201 155 259 269 249 245 234 239 231 221 216 206 195 185 198 205 209 209 210 211 215 217 211 214 227 230 232 235 239 243 240 238 248
138 156 178 225 215 134 185 198 188 151 143 198 221 252 260 244 231 234 234 235 226 218 209 202 204 207 206 205 207 210 218 214 211 205 213 226 226 226 231 235 241 243 234 245
156 207 186 240 204 195 213 192 184 204 217 200 252 230 240 235 221 223 222 229 216 224 211 207 208 207 206 205 203 209 221 204 200 209 211 223 233 229 236 246 251 251 240 240
216 236 124 272 277 248 250 225 198 222 231 249 268 271 245 260 221 215 219 212 216 224 220 216 214 207 206 203 203 204 215 206 185 205 219 223 224 236 236 245 248 249 250 235
160 146 118 260 55 328 278 206 211 218 204 216 229 246 223 238 226 224 226 215 219 224 216 207 207 206 206 204 197 200 201 182 185 206 216 221 221 231 233 240 243 251 246 211
156 152 167 251 58 250 252 176 199 218 225 214 244 258 246 240 246 230 217 209 226 223 213 210 206 202 207 190 182 181 174 175 188 199 214 214 212 230 244 248 253 258 213 191
237 147 195 218 198 290 272 176 168 178 252 218 228 246 251 252 0 257 222 216 221 211 202 203 197 200 179 173 173 176 172 177 171 204 212 205 192 228 241 235 244 211 175 164
68 45 202 114 193 239 254 174 162 100 271 178 213 237 240 134 240 256 238 211 219 201 183 184 183 167 164 170 156 160 174 172 196 205 211 175 188 199 200 203 186 145 130 172
161 252 220 228 239 266 137 140 132 167 261 179 200 229 185 194 219 232 195 197 211 200 179 161 163 179 176 155 152 169 160 187 204 149 175 150 150 168 154 134 120 121 116 82
177 174 205 201 219 250 128 138 203 234 279 187 193 210 191 215 234 237 207 202 176 166 152 169 162 165 149 151 153 166 180 176 142 136 133 128 122 111 128 130 104 96 110 108
229 214 225 207 229 244 238 246 229 264 238 228 214 201 203 215 221 213 217 192 179 171 168 163 163 141 153 161 165 158 198 141 136 125 126 122 124 131 133 131 147 110 91 200
225 225 226 246 248 255 264 249 238 205 225 251 241 222 184 208 215 214 201 188 177 167 173 160 146 152 161 168 158 134 140 135 128 129 137 134 135 134 124 118 122 119 155 304
231 206 229 252 249 264 263 248 237 250 259 245 232 204 208 223 226 205 201 189 180 171 159 162 164 163 165 155 156 146 134 130 127 123 130 140 139 136 128 102 111 77 267 249
229 237 232 239 246 235 258 259 209 220 231 230 227 231 220 200 221 193 198 190 174 167 149 153 146 125 138 138 128 129 134 135 133 132 140 145 129 119 109 95 40 9 354 341